Regional Weather Roundup
Issued by NWS New Orleans/Baton Rouge, LA

Home | Current Version | Previous Version | Text Only | Print | Product List | Glossary On
Versions: 1 2 3 4 5 6 7 8 9 10 11 12 13 14 15 16 17 18 19 20 21 22 23 24 25 26 27 28 29 30 31 32 33 34 35 36 37 38 39 40 41 42 43 44 45 46 47 48 49 50
097
ASUS44 KLIX 291801
RWRLIX
NEW ORLEANS REGIONAL WEATHER ROUNDUP
NATIONAL WEATHER SERVICE NEW ORLEANS LA
100 PM CDT TUE JUL 29 2014

NOTE: "FAIR" INDICATES FEW OR NO CLOUDS BELOW 12,000 FEET WITH NO
      SIGNIFICANT WEATHER AND/OR OBSTRUCTIONS TO VISIBILITY.
      SKY/WX - SKY CONDITION AND SIGNIFICANT WEATHER.
      TMP - AIR TEMPERATURE.     DP    - DEWPOINT TEMPERATURE.
      RH  - RELATIVE HUMIDITY.   PRES  - PRESSURE.
      HI  - HEAT INDEX.          WCI   - WIND CHILL INDEX.

*  THESE STATIONS ARE NOT NWS OR FAA STATIONS AND ARE NOT UNDER
   NWS QUALITY CONTROL.

LAZ038-040-048-061>063-065>067-069-291900-
SOUTHEAST LOUISIANA

CITY           SKY/WX    TMP DP  RH WIND       PRES   REMARKS
N.O. AUDUBON   NOT AVBL
N.O. INTL ARPT PTSUNNY   89  68  49 NE8       30.07F
6HR MIN TEMP:  80; 6HR MAX TEMP:  90;

N.O. LAKEFRONT PTSUNNY   85  65  51 N7        30.07F
6HR MIN TEMP:  80; 6HR MAX TEMP:  85;

N.O. DOWNTOWN*   N/A     84  64  51 NE5       30.07F
6HR MIN TEMP:  81; 6HR MAX TEMP:  86;

SLIDELL        PTSUNNY   86  67  52 VRB5      30.06F
6HR MIN TEMP:  72; 6HR MAX TEMP:  87;

BATON ROUGE    MOSUNNY   87  66  49 MISG      30.08F
6HR MIN TEMP:  74; 6HR MAX TEMP:  87;

BOOTHVILLE     PTSUNNY   84  70  62 VRB6      30.06F
6HR MIN TEMP:  81; 6HR MAX TEMP:  85;

BELLE CHASSE   PTSUNNY   86  66  51 NE8       30.05F
6HR MIN TEMP:  78; 6HR MAX TEMP:  87;

BOGALUSA*        N/A     87  63  45 NE5       30.08F
6HR MIN TEMP:  71; 6HR MAX TEMP:  87;

GALLIANO*      NOT AVBL
NEW ROADS*       N/A     84  66  54 N5        30.08F
6HR MIN TEMP:  74; 6HR MAX TEMP:  84;

GONZALES*        N/A     84  69  60 E3        30.07S
6HR MIN TEMP:  75; 6HR MAX TEMP:  84;

HAMMOND*       MOSUNNY   90  63  40 N6        30.08F
HOUMA*         PTSUNNY   88  66  48 NE3       30.07
PORT FOURCHON* PTCLDY    88  72  58 N5        30.07F

$$

MSZ070-080>082-291900-
SOUTHERN MISSISSIPPI

CITY           SKY/WX    TMP DP  RH WIND       PRES   REMARKS
MCCOMB         MOSUNNY   84  62  47 N6        30.09F
6HR MIN TEMP:  70; 6HR MAX TEMP:  85;

GULFPORT       MOSUNNY   90  63  40 N8        30.05F
6HR MIN TEMP:  76; 6HR MAX TEMP:  90;

BILOXI         MOSUNNY   87  64  46 VRB5      30.05F
6HR MIN TEMP:  74; 6HR MAX TEMP:  87;

PASCAGOULA     MOSUNNY   87  65  47 N5        30.04F
6HR MIN TEMP:  72; 6HR MAX TEMP:  87;

STENNIS ARPT*  MOSUNNY  N/A N/A N/A N7        30.06F

$$

COASTAL OBSERVATIONS
LAKE AND NEARSHORE STATIONS

STATION/POSITION TIME  TEMP    WIND        PRES    WAVE
                       AIR SEA DIR/SP/G            HT/PER
                 (UTC) (F)     (DEG/KT/KT) (MB)    (FT/S)
PASCAGOULA       1700   87      20/  7/  9 1017.0
WAVELAND YACHT   1700   82     330/  3/  4 1017.5
GRAND ISLE       1700   84 86   40/  4/  6 1018.5
SOUTHWEST PASS   1700   89 84   80/  6/  8 1017.9
NEW CANAL        1700   81 83   40/  7/  8 1018.8
SHELL BEACH      1700   81 81  360/  8/ 10 1018.1

OFFSHORE STATIONS

STATION/POSITION TIME  TEMP    WIND        PRES    WAVE
                       AIR SEA DIR/SP/G            HT/PER
                 (UTC) (F)     (DEG/KT/KT) (MB)    (FT/S)
64 S DAUPHIN ISL 1749   82 87   10/  6/  8 1017.2

$$




USA.gov is the U.S. government's official web portal to all federal, state and local government web resources and services.